Location: Newark
(35.2672°N, 80.7344°W)
Time: 05:37:44
(UTC+00:00)

Tiros 1 - Pass Details

Date: 29 January 2020
Orbit: 631 x 664 km, 48.4° (Epoch: 19 February)

Event Time Altitude Azimuth Distance (km) Brightness Sun altitude
Rises 19:13:29 0° 299° (WNW) 2,944 10.5 32.0°
Reaches altitude 10° 19:16:38 10° 321° (NW) 2,042 9.6 31.7°
Maximum altitude 19:19:34 16° 0° (N) 1,677 9.0 31.4°
Drops below altitude 10° 19:22:31 10° 39° (NE) 2,055 9.3 31.1°
Sets 19:25:43 0° 61° (ENE) 2,974 10.1 30.8°
